Weather in Ansbach

Germany     49°18′03″N   10°34′27″E
temp.,
°C
wind,
m/s
gust,
m/s
humid.,
%
clouds,
%
prec.,
mm/h
press.,
hPa
HPBL,
m
21 april, wed
wed2123:00+6sw00735 0.0 101610
02:00+5sw22789 0.0 101610
05:00+4wsw11845 0.0 101610
08:00+7wsw12785 0.0 101677
11:00+12w22625 0.1 1016927
14:00+14wnw33575 1.4 10141610
17:00+14nw44557 0.4 10131571
20:00+9nnw33846 1.1 101554
22 april, thu
thu2223:00+6n228818 0.0 101727
02:00+6n4991100 0.0 1018302
05:00+4nnw3794100 0.1 1020261
08:00+3n4881100 0.6 1022354
11:00+6nnw4553100 0.0 1023806
14:00+8nnw454977 0.0 10231179
17:00+9nnw575036 0.0 10231566
20:00+5nw227055 0.0 102416
23 april, fri
fri2323:00+2nnw22805 0.0 102610
02:00+1nw22855 0.0 102711
05:000wnw22915 0.0 102821
08:00+3nw36795 0.0 1028301
11:00+8nnw45530 0.0 1028901
14:00+10nnw45503 0.0 10271264
17:00+10nnw45515 0.0 10271452
20:00+6nnw22715 0.0 102811
24 april, sat
sat2423:00+3ne22745 0.0 102913
02:00+1ene22865 0.0 102911
05:000ne11873 0.0 102810
08:00+4nne227646 0.0 1028161
11:00+8n335522 0.0 1027877
14:00+11nnw3349100 0.0 10251206
17:00+11nnw4454100 0.0 10251133
20:00+7nnw337397 0.0 102537
25 april, sun
sun2523:00+4ne3983100 0.0 1027156
02:00+2ene22895 0.0 102724
05:00+1ne22915 0.0 102714
08:00+4ene24784 0.0 1027165
11:00+9ene335711 0.0 10251044
14:00+12nne33485 0.0 10241360
17:00+12nne33470 0.0 10221282
20:00+7nne33675 0.0 102238